Back to catalog

FENGYUN 1C DEB

AlivePO
NORAD 31208·DEBRIS·🇨🇳 China

Launched May 10, 1999 from Taiyuan Satellite Launch Center

Loading…

Next Passes (next 24 hours)

TLE

FreshSource: Space-Track

Epoch: Sep 12, 2026, 23:46 UTC

1 31208U 99025BKN 26255.99065238  .00006029  00000-0  10540-2 0  9990
2 31208  99.2565  78.8650 0013061 144.9088   6.8468 14.68273992744964

Track FENGYUN 1C DEB in real time with AllMySat

Download on the App Store